Powrót do katalogu

DELTA 1 DEB

AktywnyPO
NORAD 21445·DEBRIS·🇺🇸 United States

Wystrzelony Jun 12, 1975 z Vandenberg Space Force Base

Loading…

Następne Przeloty (najbliższe 24 godziny)

TLE

ŚwieżeSource: Space-Track

Epoka: Sep 13, 2026, 13:54 UTC

1 21445U 75052ED  26256.57919897 -.00000010  00000-0  66194-4 0  9993
2 21445  99.6505 266.5855 0080778 235.3317 249.5228 13.28574857714478

Śledź DELTA 1 DEB w czasie rzeczywistym z AllMySat

Download on the App Store